COSMOS 1275 DEB, 17618

Orbit data source: Space-Track

COSMOS 1275 DEB, 17618 is space debris in LEO originally from a launch on Thu, 04 Jun 1981 UTC launched from the Plesetsk Missile And Space Complex (PKMTR). Debris objects in space refer to the collection of defunct objects orbiting the Earth. Examples of debris include non-operational satellites, rocket bodies, and fragments generated from explosions, collisions, or faulty payload assembly.

Loading next visibility...
Identifier
17618, 1981-053KM
Orbit
LEO
Country
Flag of CISCIS
Related business
Manufacturer
Unknown
Mission
Spacecraft
Bus & Motor
Unknown
Mass
Unknown
Launch date (UTC)
1981-06-04 (44 years ago)
Launch vehicle
Unknown
Launch site
Plesetsk Missile And Space Complex (PKMTR)
Object type
Payload
Rocket body
Debris
Shape & HBR
Unknown shape, 0.1 m
Radar Cross Section
Small (<0.1 m²)

Expand to show TLE details & history
Last TLE update: 15 hours ago

TLE from 15 hours ago
0 COSMOS 1275 DEB
1 17618U 81053KM  25286.39359907  .00003762  00000-0  20326-2 0  9991
2 17618  82.8479 336.9851 0050903 195.4749 175.0634 14.11730817 59164
Epoch: 2025-10-13T09:26Z
TLE epoch observation values (Epoch: 2025-10-13T09:26:46.959Z)
Latitude
10.4524°
Longitude
174.41189°
Altitude
892.337 km
Speed
7.388 km/s
True Right ascension
22h 33m 13s
True Declination
10° 23' 32"
Sunlit
Object was in full shadow at epoch
Visualization orbit readout
Latitude
Unknown
Longitude
Unknown
Altitude
Unknown
Speed
Unknown
Apparent Right ascension
Unknown
Apparent Declination
Unknown
Sunlit
N/A
Visualization observer readout
Local Sidereal Time
19:14:05
Azimuth
Unknown
Elevation
Unknown
Doppler factor
Unknown
Orbital elements
Apogee altitude
887.353 km
Perigee altitude
813.76 km
Semi-major axis
7,228.694 km
Eccentricity
0.00509
Inclination
82.8479°
RAAN
336.9851°
Arg. of periapsis
195.4749°
True anomaly
175.11328°
Mean anomaly
175.0634°
Eccentric anomaly
175.08837°
Mean motion
3.53145 °/min
Orbital period
101.94 mins
BSTAR
0.0020326
Loading maneuver chart data...
Computing Atmospheric mass density...
Loading historical data...
Loading historical data...
Loading historical data...
Loading historical data...
Loading historical data...
Loading historical data...
Loading historical data...

Documentation

Showing up to 5 results
|